Date,TemperatureHighF,TemperatureAvgF,TemperatureLowF,DewpointHighF,DewpointAvgF,DewpointLowF,HumidityHigh,HumidityAvg,HumidityLow,PressureMaxIn,PressureMinIn,WindSpeedMaxMPH,WindSpeedAvgMPH,GustSpeedMaxMPH,PrecipitationSumIn
2013-1-1,56.7,46.3,37.4,44.4,33.1,25.6,81,61,38,30.05,29.96,8,0,8,0.04
2013-1-2,56.5,52.4,47.5,46.2,37.8,32.9,91,58,42,30.16,29.93,12,2,12,0.04
2013-1-3,59.7,51.4,45.5,38.9,35.1,31.6,72,54,36,30.37,30.16,7,1,7,0.00
2013-1-4,58.6,50.1,40.5,35.2,32.8,30.7,80,53,36,30.34,30.19,5,0,5,0.00
2013-1-5,55.9,44.9,40.5,37.8,36.0,33.4,86,72,45,30.19,29.99,6,1,6,0.00
2013-1-6,59.2,47.2,40.1,44.6,37.3,31.3,85,71,40,30.11,29.99,8,1,8,0.00
2013-1-7,59.5,47.4,42.6,45.0,38.7,32.8,86,73,38,30.11,29.96,7,1,7,0.00
2013-1-8,53.4,46.5,39.9,41.8,37.5,30.7,81,71,46,30.19,30.11,5,0,5,0.00
2013-1-9,52.3,47.9,46.0,40.6,38.6,33.9,78,71,51,30.11,30.02,4,0,4,0.00
2013-1-10,54.1,51.4,47.3,46.9,40.3,31.8,93,68,45,29.90,29.72,8,1,8,0.16
2013-1-11,56.1,47.5,41.7,47.1,40.5,30.9,98,79,45,29.75,29.57,17,2,17,0.16
2013-1-12,56.7,46.6,38.8,38.0,35.1,32.3,89,66,43,29.90,29.75,8,1,8,0.00
2013-1-13,55.6,51.3,47.5,48.8,42.7,35.1,94,73,55,29.90,29.63,23,3,23,1.46
2013-1-14,56.1,53.4,47.3,48.3,38.0,30.9,91,57,42,29.81,29.60,19,5,19,0.16
2013-1-15,47.7,46.4,44.2,38.9,32.4,29.6,76,58,50,29.81,29.46,13,2,13,0.08
2013-1-16,48.0,43.1,39.7,41.1,35.2,29.5,90,73,56,29.46,29.34,23,2,23,0.94
2013-1-17,50.4,42.3,37.6,40.5,33.6,29.3,83,71,50,29.34,29.19,25,2,25,0.31
2013-1-18,48.0,42.5,38.5,33.2,24.5,20.9,79,50,37,29.52,29.25,17,4,17,0.00
2013-1-19,34.9,34.6,34.2,25.2,25.0,24.7,68,68,67,29.52,29.52,4,0,4,0.00
2013-1-26,46.4,41.7,37.8,19.4,18.8,18.0,45,39,33,29.75,29.69,6,2,6,2.52
2013-1-27,54.0,40.7,34.2,27.8,21.9,17.7,60,47,36,29.87,29.75,9,1,9,0.00
2013-1-28,48.4,45.2,39.9,44.1,36.6,23.8,93,73,49,29.93,29.69,11,2,11,0.31
2013-1-29,56.5,45.5,39.6,41.9,34.6,29.0,87,67,36,30.14,29.93,6,1,6,0.31
2013-1-30,60.4,49.7,40.3,46.6,37.1,30.2,83,65,35,30.11,30.05,8,1,8,0.00
2013-1-31,66.2,55.1,46.8,47.2,41.1,35.8,80,62,35,30.08,30.02,9,1,9,0.00